This is the latest recevied weather packets stored in our database for station/object KC1TWD. If no packets are shown the sender has not sent any weather packets the latest 10 day(s).
| Time | Temp. | Humidity | Pressure | Rain* | Wind** | Luminosity | Snow |
|---|---|---|---|---|---|---|---|
| 1777896227 | 11.11° C | 55% | 1009.2 hPa | 0 mm | - | - | - |
| 1777895924 | 11.11° C | 59% | 1009 hPa | 0 mm | - | - | - |
| 1777895622 | 10.56° C | 61% | 1009.1 hPa | 0 mm | - | - | - |
| 1777895319 | 10° C | 65% | 1009.5 hPa | 0 mm | - | - | - |
| 1777895017 | 9.44° C | 63% | 1009.3 hPa | 0 mm | - | - | - |
| 1777894714 | 9.44° C | 65% | 1009.5 hPa | 0 mm | - | - | - |
| 1777894410 | 8.89° C | 67% | 1009.3 hPa | 0 mm | - | - | - |
| 1777894108 | 8.33° C | 70% | 1009.5 hPa | 0 mm | - | - | - |
| 1777893805 | 8.33° C | 75% | 1009.4 hPa | 0 mm | - | - | - |
| 1777893501 | 7.78° C | 77% | 1009.4 hPa | 0 mm | - | - | - |
| 1777893197 | 7.22° C | 78% | 1009.6 hPa | 0 mm | - | - | - |
| 1777892894 | 7.22° C | 76% | 1009.5 hPa | 0 mm | - | - | - |
| 1777892590 | 6.67° C | 79% | 1009.4 hPa | 0 mm | - | - | - |
| 1777892286 | 6.67° C | 78% | 1009.5 hPa | 0 mm | - | - | - |
| 1777891982 | 6.67° C | 80% | 1009.5 hPa | 0 mm | - | - | - |
| 1777891681 | 6.11° C | 80% | 1009.3 hPa | 0 mm | - | - | - |
| 1777891376 | 6.11° C | 79% | 1009.4 hPa | 0 mm | - | - | - |
| 1777891072 | 6.11° C | 80% | 1009.2 hPa | 0 mm | - | - | - |
| 1777890766 | 6.67° C | 79% | 1009.4 hPa | 0 mm | - | - | - |
| 1777890463 | 6.67° C | 82% | 1009.3 hPa | 0 mm | - | - | - |
| 1777890159 | 6.67° C | 81% | 1009.4 hPa | 0 mm | - | - | - |
| 1777889856 | 6.67° C | 82% | 1009.4 hPa | 0 mm | - | - | - |
| 1777889553 | 6.67° C | 80% | 1009.4 hPa | 0 mm | - | - | - |
| 1777889251 | 6.11° C | 79% | 1009.3 hPa | 0 mm | - | - | - |
| 1777888949 | 6.11° C | 82% | 1009.5 hPa | 0 mm | - | - | - |
* Rain latest hour (hover to see other rain measurements)
** Current wind speed in m/s (hover to see current wind gust speed)